Location: Orange Harbor Mobile Home Park
(26.6923°N, 81.7937°W)
Time: 08:23:41
(UTC+00:00)

Cosmos 1674 Rocket - Pass Details

Date: 19 September 2020
Orbit: 603 x 630 km, 82.5° (Epoch: 29 October)

Event Time Altitude Azimuth Distance (km) Brightness Sun altitude
Rises 00:02:09 0° 348° (NNW) 2,920 7.3 -8.6°
Reaches altitude 10° 00:04:25 10° 344° (NNW) 2,010 6.5 -9.1°
Maximum altitude 00:08:47 56° 267° (W) 750 4.4 -10.0°
Drops below altitude 10° 00:13:06 10° 189° (S) 1,993 6.2 -11.0°
Sets 00:15:21 0° 185° (S) 2,893 7.0 -11.5°
